Home   Weather   Knox   Past weeks
Flag for USA

Past Weather in Knox, Indiana, USA — Yesterday and Last 2 Weeks

Now
44 °F

Clear.


Feels Like: 38 °F
Forecast: 62 / 37 °F
Wind: 13 mph from Southwest

Location: Porter County Municipal Airport

Current Time: Oct 23, 2019 at 3:14:44 am

Latest Report: Oct 23, 2019 at 1:56 am


Visibility: 10 mi

Pressure: 29.87 "Hg

Humidity: 60%

Dew Point: 31 °F

Location of KnoxLocation

Past Weather in Knox — Graph

°F

Knox Temperature Yesterday

Maximum temperature yesterday: 54 °F (at 4:56 pm)
Minimum temperature yesterday: 47 °F (at 11:56 pm)
Average temperature yesterday: 51 °F

High & Low Weather Summary for the Past Weeks

 TemperatureHumidityPressure
High75 °F (Oct 10, 2:56 pm)92% (Oct 18, 6:17 am)30.27 "Hg (Oct 18, 6:17 am)
Low32 °F (Oct 18, 6:56 am)27% (Oct 8, 2:56 pm)29.49 "Hg (Oct 21, 3:56 pm)
Average53 °F65%29.93 "Hg
* Reported Oct 8 6:56 am — Oct 23 1:56 am, Knox. Weather by CustomWeather, © 2019

Note: Actual official high and low records may vary slightly from our data, if they occured in-between our weather recording intervals... More about our weather records

Advertising

Knox Weather History for the Previous 24 Hours

Scroll right to see more
 ConditionsComfort  
Time TempWeatherWind HumidityBarometerVisibility
1:56 am
Wed, Oct 23
44 °FClear.13 mph60%29.87 "Hg10 mi
12:56 am45 °FClear.13 mph56%29.85 "Hg10 mi
11:56 pm
Tue, Oct 22
47 °FClear.14 mph54%29.85 "Hg10 mi
10:56 pm49 °FPassing clouds.12 mph57%29.84 "Hg10 mi
9:56 pm50 °FOvercast.13 mph63%29.84 "Hg10 mi
8:56 pm50 °FOvercast.12 mph61%29.82 "Hg10 mi
7:56 pm50 °FPassing clouds.13 mph59%29.81 "Hg10 mi
6:56 pm51 °FClear.13 mph56%29.78 "Hg10 mi
5:56 pm53 °FPassing clouds.16 mph52%29.75 "Hg10 mi
4:56 pm54 °FMostly cloudy.17 mph51%29.73 "Hg10 mi
3:56 pm53 °FOvercast.17 mph52%29.72 "Hg10 mi
2:56 pm51 °FMostly cloudy.23 mph54%29.71 "Hg10 mi
1:56 pm52 °FMostly cloudy.21 mph55%29.69 "Hg10 mi
1:22 pm51 °FMore clouds than sun.16 mph59%29.69 "Hg10 mi
1:04 pm50 °FMostly cloudy.18 mph66%29.69 "Hg10 mi
12:56 pm50 °FLight rain. Cloudy.22 mph68%29.69 "Hg10 mi
11:56 am51 °FLight rain. Cloudy.28 mph66%29.67 "Hg10 mi
11:07 am52 °FMostly cloudy.23 mph59%29.65 "Hg10 mi
10:56 am52 °FMostly cloudy.23 mph61%29.65 "Hg10 mi
9:56 am52 °FCloudy.26 mph61%29.63 "Hg10 mi
8:56 am51 °FLight rain. Cloudy.22 mph66%29.62 "Hg10 mi
8:11 am50 °FLight rain. Mostly cloudy.16 mph68%29.61 "Hg10 mi
7:56 am50 °FCloudy.20 mph68%29.60 "Hg10 mi
6:56 am49 °FScattered clouds.17 mph69%29.59 "Hg10 mi
5:56 am49 °FClear.14 mph69%29.58 "Hg10 mi
4:56 am50 °FClear.16 mph66%29.57 "Hg10 mi
3:56 am50 °FClear.15 mph66%29.57 "Hg10 mi
Weather by CustomWeather, © 2019

See weather overview